Weather observations for the past three days for
Luke Air Force Base / Phoenix
Metric (Imperial)
Date Time (mst) Wind (kph) Vis. (km) Weather Sky Cond. Temperature (ºC) Relative Humidity Wind Chill (°C) Heat Index (°C) Pressure Precipitation (cm)
Air Dwpt 6 hour altimeter (cm) sea level (mb) 1 hr 3 hr 6 hr
Max. Min.
09 10:55 S 9 16.09 Fair CLR 33.6 -2.2 33.6 23 10% 31 75.77 1008.5
09 09:55 SE 6 16.09 Fair CLR 31.6 -2.5 11% 29 75.79 1008.8
09 08:55 S 9 16.09 Fair CLR 29.6 -1.8 13% 28 75.77 1008.5
09 07:55 SE 6 16.09 Fair CLR 27.2 -0.8 16% 26 75.77 1008.5
09 06:55 N 7 16.09 Fair CLR 24.2 -0.9 19% 25 75.74 1008.2
09 05:55 Calm 16.09 Fair CLR 24.1 -1 19% 24 75.67 1007.2
09 04:55 S 17 16.09 Fair CLR 25 -1 30.4 24.7 18% 25 75.62 1006.4
09 03:55 S 19 16.09 Fair CLR 26.9 -1.1 16% 26 75.62 1006.4
09 02:55 SW 15 16.09 Fair CLR 27.4 -3.5 13% 26 75.62 1006.4
09 01:55 S 9 16.09 Fair CLR 28.3 -3.8 12% 27 75.62 1006.4
09 00:55 Calm 16.09 Fair CLR 28.3 -2.8 13% 27 75.59 1006.1
08 23:55 S 9 16.09 Fair CLR 29.9 -3.8 11% 28 75.59 1006.1
08 22:55 S 15 16.09 Fair CLR 30.5 -2.1 39.2 30.3 12% 29 75.57 1005.8
08 21:55 S 19 16.09 Fair CLR 31.4 -1.4 12% 29 75.57 1005.8
08 20:55 SW 22 16.09 Fair CLR 34 -1.9 10% 31 75.51 1005.2
08 19:55 SW 13 16.09 Fair CLR 34.8 -2.8 9% 32 75.49 1004.9
08 18:55 SW 22 16.09 Fair CLR 37.5 -6.2 6% 34 75.44 1004.1
08 17:55 SW 22 16.09 Fair CLR 38.4 -5.5 6% 35 75.44 1004.2
08 16:55 SW 28 G 43 16.09 Fair CLR 39 -5.1 39 30.1 6% 36 75.44 1004.2
08 15:55 SW 15 16.09 Fair CLR 38.3 -5.6 6% 35 75.51 1005.2
08 14:55 SW 19 G 30 16.09 Fair CLR 37.5 -2.4 8% 34 75.59 1006.2
08 13:55 SW 19 16.09 A Few Clouds FEW190 36.1 -0.4 10% 33 75.67 1007.2
08 12:55 S 15 16.09 A Few Clouds FEW190 34.5 -0.3 11% 32 75.74 1008.2
08 11:55 Calm 16.09 A Few Clouds FEW180 32.6 -0.5 12% 30 75.82 1009.2
08 10:55 Calm 16.09 A Few Clouds FEW210 30.2 0.7 30.2 18.8 15% 28 75.87 1009.9
08 09:55 SE 9 16.09 Fair CLR 29 1.5 17% 27 75.9 1010.4
08 08:55 Calm 16.09 Fair CLR 26.5 1.7 20% 26 75.92 1010.8
08 07:55 Calm 16.09 Fair CLR 23.9 0.2 21% 24 75.92 1010.8
08 06:55 Calm 11.27 Fair CLR 21 -0.9 23% 75.9 1010.5
08 05:55 Calm 14.48 Fair CLR 19 -0.9 26% 75.84 1009.8
08 04:55 N 7 16.09 Fair CLR 19.5 -1.1 29 19.3 25% 75.79 1009.1
08 03:55 Calm 16.09 Fair CLR 21.1 -3.4 19% 75.74 1008.4
08 02:55 Calm 16.09 Fair CLR 22.3 -3.2 18% 75.74 1008.4
08 01:55 Calm 16.09 Fair CLR 24.4 -3.1 16% 24 75.72 1008.0
08 00:55 NE 9 16.09 Fair CLR 25.6 -3 15% 25 75.72 1007.9
07 23:55 SW 11 16.09 Fair CLR 28.1 -1.9 14% 27 75.69 1007.5
07 22:55 S 15 16.09 Fair CLR 29.2 -3.1 35.2 28.5 12% 28 75.72 1007.9
07 21:55 S 13 16.09 Fair CLR 30.1 -7.8 8% 28 75.69 1007.5
07 20:55 SW 15 16.09 Fair CLR 29.4 -6.8 9% 28 75.67 1007.3
07 19:55 SW 15 16.09 Fair CLR 31.7 -8.4 7% 30 75.62 1006.7
07 18:55 SW 22 16.09 Fair CLR 33.6 -9 6% 31 75.57 1006.0
07 17:55 S 24 G 33 16.09 Fair CLR 34.9 -10.4 5% 32 75.54 1005.8
07 16:55 S 26 16.09 Fair CLR 35.3 -10.1 35.7 30.4 5% 33 75.57 1006.2
07 15:55 S 24 G 30 16.09 Fair CLR 35.4 -10 5% 33 75.59 1006.4
07 14:55 S 6 16.09 A Few Clouds FEW180 34.2 -10.8 5% 32 75.64 1007.1
07 13:55 SW 9 16.09 A Few Clouds FEW180 34.1 -10.9 5% 32 75.72 1008.1
07 12:55 S 9 16.09 Fair CLR 33.4 -9.1 6% 31 75.77 1008.8
07 11:55 S 9 16.09 Fair CLR 32 -6.4 8% 30 75.87 1010.2
07 10:55 E 6 16.09 Fair CLR 30.3 -7.7 30.7 17.6 8% 28 75.92 1010.9
07 09:55 SE 11 16.09 Fair CLR 29 -3.3 12% 27 75.95 1011.2
07 08:55 N 9 16.09 Fair CLR 28.2 -2.8 13% 27 75.97 1011.5
07 07:55 Calm 16.09 Fair CLR 24.1 0.4 21% 25 76 1012.0
07 06:55 NW 9 16.09 Fair CLR 21.6 -0.4 23% 75.97 1011.7
07 05:55 NW 7 14.48 Fair CLR 19.4 -0.6 26% 75.95 1011.5
07 04:55 Calm 12.87 Fair CLR 17.7 -1 24.3 17.6 28% 75.95 1011.5
07 03:55 N 13 16.09 Fair CLR 18.7 -0.7 27% 75.95 1011.5
07 02:55 N 7 8.05 Fair with Haze CLR 19.6 -1.5 24% 75.97 1011.8
07 01:55 N 9 16.09 Fair CLR 20.4 -0.9 24% 75.97 1011.8
07 00:55 Calm 16.09 Fair CLR 20.5 -0.8 24% 76 1012.1
06 23:55 S 7 9.66 Fair with Haze CLR 22.8 -2 19% 76 1012.1
06 22:55 S 13 12.87 Fair CLR 24.3 -2.3 29 24 17% 24 76 1012.1
06 21:55 SW 9 11.27 Fair CLR 24.4 -1.5 18% 25 76 1012.1
06 20:55 S 11 11.27 Fair CLR 25.9 -1.9 16% 25 75.95 1011.5
06 19:55 SW 15 12.87 Fair CLR 27.2 -0.8 16% 26 75.87 1010.5
06 18:55 S 20 16.09 Fair CLR 28.3 -1.8 14% 27 75.84 1010.2
06 17:55 S 24 16.09 Fair CLR 28.6 -1.5 14% 27 75.84 1010.2
06 16:55 S 17 16.09 Fair CLR 28.8 -0.4 28.8 24.4 15% 27 75.84 1010.2
06 15:55 S 11 16.09 Fair CLR 28.4 -0.7 15% 27 75.9 1010.9
06 14:55 S 11 16.09 Fair CLR 27.5 -0.6 16% 26 75.95 1011.5
06 13:55 Calm 16.09 A Few Clouds FEW110 26.9 -0.2 17% 26 76.02 1012.7
06 12:55 SW 17 16.09 A Few Clouds FEW110 26.8 -0.3 17% 26 76.07 1013.2
06 11:55 E 7 16.09 Fair CLR 25.4 0.1 19% 25 76.1 1013.6
Date Time (mst) Wind (kph) Vis. (km) Weather Sky Cond. Air Dwpt Max. Min. Relative Humidity Wind Chill (°C) Heat Index (°C) altimeter (cm) sea level (mb) 1 hr 3 hr 6 hr
6 hour
Temperature (ºC) Pressure Precipitation (cm)